Printer-friendly version

IAU Minor Planet Center

Minor Planet Center

MPEC 2004-T19 : 2004 TN1

The following Minor Planet Electronic Circular may be linked-to from your own Web pages, but must not otherwise be redistributed electronically.

A form allowing access to any MPEC is at the bottom of this page.


Read MPEC 2004-T18 Read MPEC 2004-T20


M.P.E.C. 2004-T19                                Issued 2004 Oct. 6, 18:21 UT

     The Minor Planet Electronic Circulars contain information on unusual
         minor planets and routine data on comets.  They are published
   on behalf of Commission 20 of the International Astronomical Union by the
          Minor Planet Center, Smithsonian Astrophysical Observatory,
                          Cambridge, MA 02138, U.S.A.

                  Supported in part by the Brinson Foundation
             Prepared using the Tamkin Foundation Computer Network

                              MPC@CFA.HARVARD.EDU
          URL http://cfa-www.harvard.edu/iau/mpc.html  ISSN 1523-6714

                                   2004 TN1

Observations:
     K04T01N* C2004 10 05.17486 23 12 37.97 +13 11 38.9          19.7   ET019644
     K04T01N  C2004 10 05.23700 23 12 30.09 +13 10 29.4          19.9   ET019644
     K04T01N  C2004 10 05.29986 23 12 22.13 +13 09 18.0          19.7   ET019644
     K04T01N  C2004 10 05.84830 23 11 18.28 +12 58 36.7                 ET019246
     K04T01N  C2004 10 05.85007 23 11 18.09 +12 58 34.7                 ET019246
     K04T01N  C2004 10 05.85095 23 11 17.98 +12 58 33.5                 ET019246
     K04T01N  C2004 10 05.85294 23 11 17.73 +12 58 31.5                 ET019246
     K04T01N  C2004 10 05.85377 23 11 17.63 +12 58 30.9                 ET019246
     K04T01N  C2004 10 05.85387 23 11 17.99 +12 58 28.3                 ET019J95
     K04T01N  C2004 10 05.85457 23 11 17.47 +12 58 28.7                 ET019246
     K04T01N  C2004 10 05.86545 23 11 16.41 +12 58 16.1          20.3 R ET019J95
     K04T01N  C2004 10 06.13249 23 10 45.08 +12 53 05.1          19.9 R ET019G90
     K04T01N  C2004 10 06.13558 23 10 44.69 +12 53 01.5          19.5 R ET019G90
     K04T01N  C2004 10 06.13870 23 10 44.32 +12 52 57.6          19.6 R ET019G90
     K04T01N  C2004 10 06.17000 23 10 40.21 +12 52 20.6          20.2 R ET019854
     K04T01N  C2004 10 06.18175 23 10 38.75 +12 52 06.3          20.3 R ET019854
     K04T01N  C2004 10 06.19350 23 10 37.21 +12 51 52.7          20.0 R ET019854

Observer details:
246 Klet Observatory-KLENOT.  Observer M. Tichy.  1.06-m KLENOT Telescope
    + CCD.
644 Palomar Mountain/NEAT.  Observers R. Bambery, M. Hicks, K. Lawrence,
    E. Helin, R. Thicksten.  1.2-m Schmidt + CCD.
854 Sabino Canyon Observatory, Tucson.  Observer J. E. McGaha.  0.36-m f/10.0
    Schmidt-Cassegrain + CCD.
G90 Three Buttes Observatory, Tucson.  Observer G. R. Jones.  0.40-m
    Ritchey-Chretien + CCD.
J95 Great Shefford.  Observer P. Birtwhistle.  0.30-m f/6.3 Schmidt-Cassegrain
    + CCD.

Orbital elements:
2004 TN1                                                             PHA 0.006
Epoch 2004 Oct. 2.0 TT = JDT 2453280.5                  MPC
M 348.43557              (2000.0)            P               Q
n   0.17267124     Peri.  231.25518     +0.07928186     -0.99307370
a   3.1939103      Node   214.49681     +0.95550788     +0.10049735
e   0.7322146      Incl.    8.80688     +0.28411104     -0.06086802
P   5.71           H   21.4           G   0.15
From 17 observations 2004 Oct. 5-6.

Ephemeris:
2004 TN1                 a,e,i = 3.19, 0.73, 9                   q = 0.8553
Date    TT    R. A. (2000) Decl.     Delta      r     Elong.  Phase     V
2004 10 02    23 18.50   +14 04.9    0.331    1.315   158.8    16.0    20.5
2004 10 12    22 57.96   +10 28.8    0.249    1.215   147.3    26.4    20.0
2004 10 22    22 29.77   +03 28.1    0.178    1.119   130.5    42.6    19.5
2004 11 01    21 43.03   -10 51.3    0.118    1.030   105.5    68.1    19.2
2004 11 11    19 41.94   -39 21.9    0.085    0.954    63.0   112.4    20.3

Timothy B. Spahr             (C) Copyright 2004 MPC           M.P.E.C. 2004-T19

Read MPEC 2004-T18 Read MPEC 2004-T20


MPEC number:

Enter an
MPEC number in one of the following forms:
  • 1997-B01 (the full form)
  • J97B01 (the packed version of the full form)
  • B01 (the abbreviated form)

Valid HTML 4.01!